[[{"header":{"parameterUnit":"m.s-1","parameterCategory":2,"la1":30.2991,"la2":30.254,"lo1":-89.0895,"lo2":-89.0444,"dy":0.0017,"dx":0.0017,"nx":28,"ny":28,"refTime":"2025-02-04T09:00:00:Z","depth":"0","parameterNumber":2,"parameterNumberName":"U-component_of_CURRENTS"},"data":[0,0,0,0,0,0,0,0,0,0,0,0,0,0,0,0,0,0,0,0,0,0,0,0,0,0,0,0,0,0,0,0,0,0,0,0,0,0,0,0,0,0,0,0,0,0,0,0,0,0,0,0,0,0,0,0,0,0,0.4556,0.4556,0,0.4574,0.4573,0.4573,0.456,0.456,0.456,0.456,0.4497,0.4495,0.4494,0,0,0,0,0,0,0,0,0,0,0,0,0,0.4511,0.4512,0.4556,0.4556,0.4557,0.4574,0.4573,0.4573,0.456,0.456,0.456,0.456,0.4497,0.4496,0.4494,0,0,0,0,0,0,0,0,0,0,0,0,0,0.4525,0.4512,0.4555,0.4556,0.4557,0.4574,0.4573,0.4573,0.456,0.456,0.456,0.456,0.4498,0.4496,0.4493,0.4482,0,0,0.4486,0.4485,0,0,0,0,0,0,0,0,0.4524,0.4526,0.4555,0.4556,0.4557,0.4569,0.4535,0.454,0.456,0.4553,0.456,0.4559,0.4517,0.4513,0.4511,0.4479,0.4476,0.4486,0.4485,0.4484,0.4483,0,0,0,0,0,0,0,0.4523,0.4525,0.4557,0.4556,0.4557,0.4557,0.4558,0.4536,0.453,0.4554,0.4554,0.4565,0.4516,0.4513,0.4509,0.4475,0.4486,0.4484,0.4483,0.4482,0.4488,0.4489,0,0,0,0,0,0,0.4532,0.4524,0.4557,0.4558,0.4546,0.4558,0.4559,0.4561,0.4532,0.453,0.4565,0.4564,0.4517,0.4512,0.4507,0.4517,0.4484,0.4481,0.448,0.4486,0.4488,0.449,0,0,0,0,0,0,0.4531,0.4534,0.4556,0.4547,0.455,0.456,0.4561,0.4562,0.4564,0.4543,0.4537,0.4568,0.4517,0.451,0.4507,0.4513,0.448,0.4478,0.4484,0.4487,0.4489,0.452,0,0,0,0,0,0,0.4529,0.4533,0.4534,0.4547,0.4551,0.4573,0.4562,0.4562,0.4573,0.4572,0.4544,0.4537,0.4516,0.4511,0.4505,0.4509,0.4476,0.4482,0.4486,0.4488,0.4517,0.4523,0.4529,0,0,0,0,0,0.4527,0.4524,0.4534,0.4538,0.4553,0.4575,0.4576,0.4579,0.4573,0.4578,0.4569,0.4539,0.4525,0.451,0.4502,0.4506,0.4481,0.4485,0.4488,0.4515,0.4522,0.4529,0,0,0,0,0,0,0.4492,0.4523,0.4534,0.4537,0.4562,0.4574,0.4575,0.4584,0.458,0.4573,0.4551,0.4545,0.4553,0.453,0.4514,0.4523,0.4501,0.4503,0.4524,0.4531,0.4536,0.4561,0.4474,0,0,0,0,0,0.4491,0.4501,0.4533,0.4535,0.4548,0.4564,0.4572,0.458,0.4583,0.4581,0.4568,0.4558,0.4561,0.4546,0.4546,0.4534,0.4547,0.4538,0.4544,0.4548,0.4567,0.4597,0.4607,0.4502,0.4502,0.4502,0,0,0.4476,0.4496,0.45,0.4531,0.4543,0.4562,0.4566,0.458,0.4595,0.4573,0.4576,0.458,0.4569,0.4573,0.4572,0.4549,0.4587,0.4553,0.4557,0.4573,0.4601,0.4612,0.4621,0.4504,0.4504,0.4503,0,0,0.4455,0.4472,0.4478,0.4503,0.4537,0.4555,0.4564,0.4587,0.4595,0.4605,0.4609,0.4626,0.46,0.4614,0.4611,0.4649,0.4629,0.4639,0.4666,0.4693,0.4702,0.471,0.4743,0.4753,0.4625,0.4625,0.4625,0,0.4437,0.4454,0.4482,0.4499,0.4519,0.4554,0.4569,0.4587,0.4607,0.4619,0.4608,0.4631,0.4626,0.4651,0.4676,0.4661,0.4673,0.4633,0.47,0.4708,0.4715,0.4747,0.4758,0.4627,0.4627,0.4627,0.4626,0,0.4428,0.4447,0.4451,0.449,0.4513,0.4533,0.4573,0.4595,0.4609,0.4627,0.466,0.4671,0.4683,0.469,0.4692,0.4745,0.4738,0.4714,0.4678,0.4728,0.4758,0.4769,0.463,0.4629,0.4629,0.4628,0,0,0.4378,0.4435,0.4438,0.4458,0.4514,0.4529,0.4566,0.461,0.4623,0.4656,0.4675,0.4721,0.4734,0.4739,0.4748,0.4783,0.4856,0.4774,0.4774,0.48,0.4924,0.4855,0.486,0.4834,0.4836,0.4838,0.4925,0,0.4367,0.4397,0.4431,0.4459,0.4481,0.453,0.4555,0.4597,0.4625,0.465,0.4696,0.4716,0.4747,0.475,0.4798,0.4836,0.4886,0.4836,0.4879,0.4881,0.4807,0.4871,0.4615,0.4665,0.4936,0.4937,0.4939,0,0.4352,0.4379,0.4405,0.4453,0.4463,0.4481,0.4529,0.4556,0.4613,0.4632,0.4679,0.4706,0.4784,0.4788,0.4902,0.4863,0.4915,0.4949,0.4951,0.4886,0.4832,0.466,0.4674,0.4516,0.4955,0.4954,0.4953,0,0.4311,0.436,0.4381,0.44,0.4456,0.4469,0.4495,0.4546,0.4567,0.4623,0.4637,0.4719,0.4744,0.4835,0.4924,0.4912,0.5036,0.5012,0.501,0.5006,0.4799,0.4772,0.4657,0.5113,0.5113,0.5113,0.5113,0,0.4295,0.431,0.4361,0.4371,0.4388,0.4429,0.4444,0.4484,0.4526,0.4545,0.4622,0.4654,0.4759,0.4836,0.4927,0.5001,0.5039,0.5043,0.5029,0.4803,0.4777,0.4638,0.4592,0.5116,0.5116,0.5115,0.5114,0,0.4254,0.429,0.4312,0.4359,0.4372,0.4378,0.4418,0.4426,0.4472,0.45,0.452,0.4611,0.4706,0.4816,0.4944,0.4978,0.4919,0.5091,0.4825,0.4779,0.4607,0.4573,0.44,0.4293,0.5094,0.5093,0.5092,0,0.4239,0.4246,0.4292,0.4297,0.4316,0.4335,0.4347,0.4398,0.4411,0.4477,0.4488,0.4579,0.4656,0.4813,0.4857,0.4976,0.4865,0.4805,0.4747,0.458,0.4533,0.4414,0.4328,0.449,0.4484,0.4479,0.4475,0,0.4202,0.4215,0.4233,0.425,0.4261,0.4271,0.4291,0.4293,0.4343,0.4377,0.4426,0.4494,0.4606,0.4583,0.4699,0.4742,0.4528,0.4713,0.4588,0.4104,0.3916,0.3808,0.447,0.4433,0.4437,0.444,0.4443,0.4444,0.4164,0.4165,0.4182,0.4188,0.4199,0.4182,0.4145,0.4176,0.4185,0.4171,0.4314,0.4343,0.4311,0.4429,0.4457,0.4216,0.4301,0.4071,0.4065,0.3978,0.3788,0.4378,0.4296,0.4299,0.4302,0.4304,0.4306,0,0.4095,0.4105,0.4116,0.4106,0.4072,0.4103,0.4084,0.4016,0.3981,0.4041,0.4079,0.3996,0.3923,0.3892,0.368,0.3559,0.3456,0.3445,0.3182,0.3153,0.3696,0.3579,0.3276,0.3276,0.3276,0.3276,0.3276,0.3277,0.406,0.4037,0.4044,0.3973,0.3955,0.385,0.3804,0.373,0.3735,0.3613,0.3547,0.3569,0.3457,0.3282,0.3036,0.2976,0.2783,0.2647,0.2741,0.307,0.3126,0.3179,0.3056,0.2647,0.2647,0.202,0.2015,0.2011]},{"header":{"parameterUnit":"m.s-1","parameterCategory":2,"la1":30.2991,"la2":30.254,"lo1":-89.0895,"lo2":-89.0444,"dy":0.0017,"dx":0.0017,"nx":28,"ny":28,"refTime":"2025-02-04T09:00:00:Z","depth":"0","parameterNumber":3,"parameterNumberName":"V-component_of_CURRENTS"},"data":[0,0,0,0,0,0,0,0,0,0,0,0,0,0,0,0,0,0,0,0,0,0,0,0,0,0,0,0,0,0,0,0,0,0,0,0,0,0,0,0,0,0,0,0,0,0,0,0,0,0,0,0,0,0,0,0,0,0,0.0162,0.0162,0,0.0111,0.0111,0.011,0.0074,0.0074,0.0074,0.0073,0.0008,0.0006,0.0005,0,0,0,0,0,0,0,0,0,0,0,0,0,0.0232,0.0231,0.0162,0.0162,0.0161,0.0111,0.0111,0.011,0.0074,0.0074,0.0074,0.0073,0.0008,0.0007,0.0005,0,0,0,0,0,0,0,0,0,0,0,0,0,0.0194,0.0231,0.0163,0.0137,0.0134,0.0112,0.0111,0.011,0.0074,0.0074,0.0073,0.0073,0.0009,0.0007,0.0005,0.0,0,0,-0.0002,-0.0003,0,0,0,0,0,0,0,0,0.0196,0.0191,0.0141,0.0139,0.0136,0.0098,0.0111,0.0072,0.0074,0.0097,0.0073,0.0073,0.0037,0.0032,0.0024,-0.0003,-0.0006,-0.0002,-0.0004,-0.0005,-0.0005,0,0,0,0,0,0,0,0.0199,0.0193,0.0142,0.0141,0.0137,0.0129,0.0123,0.0104,0.007,0.0095,0.0093,0.0087,0.0035,0.0027,0.0023,-0.0007,-0.0002,-0.0004,-0.0006,-0.0006,-0.0029,-0.0028,0,0,0,0,0,0,0.0205,0.0196,0.0144,0.0141,0.0165,0.0128,0.0122,0.0111,0.0071,0.0064,0.0087,0.0085,0.0031,0.0025,0.002,0.0027,-0.0005,-0.0007,-0.0008,-0.003,-0.0029,-0.0028,0,0,0,0,0,0,0.0206,0.02,0.0146,0.0167,0.016,0.0128,0.0116,0.011,0.0103,0.0065,0.0058,0.0086,0.003,0.0023,0.0012,0.0023,-0.0008,-0.001,-0.003,-0.0029,-0.0028,0.0031,0,0,0,0,0,0,0.0208,0.0201,0.0198,0.0168,0.0159,0.014,0.0116,0.011,0.01,0.0097,0.0061,0.0054,0.0029,0.0015,0.0009,0.002,-0.0011,-0.0031,-0.003,-0.0029,0.0028,0.0034,0.0039,0,0,0,0,0,0.0211,0.021,0.0198,0.0192,0.0154,0.014,0.0136,0.0111,0.01,0.0102,0.0081,0.0056,0.0019,0.0014,0.0007,0.0017,-0.0032,-0.003,-0.0029,0.0025,0.0033,0.0039,0,0,0,0,0,0,0.024,0.0205,0.0192,0.018,0.0165,0.0134,0.0132,0.0117,0.0102,0.0099,0.0064,0.0056,0.0051,0.0027,0.0022,0.0015,-0.001,-0.001,0.0034,0.004,0.0045,0.006,-0.0013,0,0,0,0,0,0.0244,0.0233,0.0204,0.0197,0.0189,0.0163,0.0154,0.014,0.012,0.0113,0.0088,0.0066,0.0052,0.0041,0.0024,0.0019,0.0026,0.0021,0.0027,0.0031,0.0039,0.0072,0.0082,-0.0023,-0.0023,-0.0023,0,0,0.0252,0.0234,0.0226,0.0203,0.0187,0.0182,0.0157,0.0149,0.0149,0.0108,0.0102,0.0084,0.0056,0.0053,0.0048,0.0033,0.0066,0.0033,0.0038,0.0043,0.0075,0.0085,0.0094,-0.0022,-0.0022,-0.0022,0,0,0.0269,0.0248,0.0246,0.0235,0.0216,0.0202,0.0203,0.0177,0.017,0.0163,0.0138,0.0133,0.0101,0.0091,0.0081,0.0106,0.0096,0.0095,0.0131,0.0163,0.0172,0.018,0.0213,0.0223,0.0096,0.0096,0.0096,0,0.0279,0.0271,0.0246,0.0244,0.0239,0.0214,0.0218,0.0208,0.0184,0.0186,0.0169,0.0149,0.0123,0.013,0.0136,0.012,0.0136,0.0108,0.0172,0.018,0.0187,0.0218,0.0229,0.0099,0.0098,0.0098,0.0098,0,0.0293,0.0289,0.0289,0.0276,0.0271,0.0271,0.0254,0.0253,0.0241,0.0231,0.0236,0.021,0.02,0.0191,0.0167,0.0203,0.0199,0.0179,0.0159,0.0202,0.0231,0.0242,0.0103,0.0102,0.0101,0.01,0,0,0.0306,0.03,0.0299,0.0302,0.0288,0.0286,0.0293,0.0294,0.0305,0.029,0.031,0.0288,0.0278,0.0266,0.0243,0.0263,0.0327,0.0244,0.0244,0.0283,0.0407,0.0384,0.0393,0.0322,0.0324,0.0325,0.0411,0,0.0325,0.0334,0.0325,0.0339,0.0342,0.0329,0.0339,0.0339,0.0335,0.0349,0.0338,0.0344,0.0305,0.0306,0.0323,0.0326,0.0355,0.0306,0.0354,0.0355,0.0335,0.0404,0.0383,0.0455,0.0421,0.0422,0.0423,0,0.0339,0.0344,0.036,0.0372,0.0372,0.0378,0.0393,0.0399,0.0412,0.0412,0.0421,0.0412,0.0436,0.0398,0.0443,0.0415,0.042,0.0421,0.0424,0.0389,0.0351,0.0404,0.0475,0.031,0.0439,0.0438,0.0437,0,0.0358,0.0369,0.0385,0.0386,0.0393,0.0404,0.0409,0.0419,0.0436,0.0457,0.0481,0.0495,0.0518,0.0528,0.0529,0.0494,0.0586,0.0537,0.0525,0.0523,0.0507,0.05,0.0429,0.0584,0.0583,0.0583,0.0583,0,0.0376,0.0389,0.0395,0.0401,0.0429,0.0423,0.0454,0.0461,0.0486,0.053,0.0516,0.057,0.0555,0.0597,0.0579,0.0599,0.0633,0.0554,0.0552,0.0526,0.052,0.0375,0.028,0.0586,0.0586,0.0585,0.0584,0,0.0392,0.0394,0.0415,0.043,0.0437,0.0454,0.0481,0.0508,0.0525,0.0587,0.0604,0.065,0.0718,0.0706,0.0741,0.0673,0.0601,0.068,0.0649,0.0641,0.0435,0.0345,0.0301,0.0237,0.0671,0.0671,0.0671,0,0.04,0.0412,0.0436,0.0454,0.046,0.0484,0.0509,0.0525,0.0564,0.0651,0.07,0.0778,0.0875,0.0905,0.0825,0.0806,0.0653,0.0702,0.0618,0.0439,0.0338,0.0273,0.0217,0.0629,0.0628,0.0628,0.0628,0,0.0421,0.0429,0.0448,0.0481,0.0507,0.0545,0.0585,0.0629,0.0676,0.0762,0.0902,0.0993,0.1018,0.1022,0.094,0.0867,0.0556,0.0693,0.0525,0.0318,0.0228,0.016,0.055,0.0626,0.0626,0.0626,0.0626,0.0626,0.044,0.0456,0.048,0.0514,0.0551,0.0615,0.0674,0.0752,0.0863,0.1038,0.1086,0.1298,0.1178,0.1096,0.0923,0.0555,0.058,0.0427,0.0345,0.0305,0.0199,0.0578,0.063,0.063,0.063,0.063,0.0631,0,0.0457,0.0476,0.0511,0.056,0.0616,0.0629,0.0734,0.083,0.1008,0.1224,0.1393,0.1519,0.1311,0.104,0.0567,0.0266,0.0138,0.0088,-0.0028,-0.0059,0.0301,0.025,0.0199,0.0199,0.0199,0.0199,0.02,0.02,0.0468,0.0495,0.0511,0.0601,0.0652,0.0758,0.0838,0.1009,0.1198,0.1516,0.1731,0.1874,0.1646,0.0692,0.0029,-0.0122,-0.0356,-0.0381,-0.0474,-0.0275,-0.0251,-0.0228,-0.03,-0.0465,-0.0466,-0.081,-0.0814,-0.0817]}],[{"header":{"parameterUnit":"m.s-1","parameterCategory":2,"la1":30.2991,"la2":30.254,"lo1":-89.0895,"lo2":-89.0444,"dy":0.0017,"dx":0.0017,"nx":28,"ny":28,"refTime":"2025-02-04T09:00:00:Z","depth":"2","parameterNumber":2,"parameterNumberName":"U-component_of_CURRENTS"},"data":[0,0,0,0,0,0,0,0,0,0,0,0,0,0,0,0,0,0,0,0,0,0,0,0,0,0,0,0,0,0,0,0,0,0,0,0,0,0,0,0,0,0,0,0,0,0,0,0,0,0,0,0,0,0,0,0,0,0,0.1806,0.1807,0,0.1829,0.1829,0.1829,0.1875,0.1876,0.1877,0.1878,0.1955,0.1956,0.1957,0,0,0,0,0,0,0,0,0,0,0,0,0,0.1732,0.1734,0.1806,0.1807,0.1807,0.1829,0.1829,0.1829,0.1875,0.1876,0.1877,0.1879,0.1955,0.1956,0.1957,0,0,0,0,0,0,0,0,0,0,0,0,0,0.1759,0.1734,0.1806,0.1834,0.1837,0.1829,0.1829,0.1829,0.1874,0.1876,0.1878,0.1879,0.1954,0.1956,0.1957,0.1935,0,0,0.1962,0.1963,0,0,0,0,0,0,0,0,0.1758,0.1762,0.1829,0.1832,0.1835,0.1852,0.1831,0.1868,0.1874,0.1858,0.1878,0.188,0.1926,0.193,0.1927,0.1938,0.1942,0.1962,0.1963,0.1964,0.1964,0,0,0,0,0,0,0,0.1756,0.1761,0.1814,0.183,0.1833,0.1821,0.1827,0.1838,0.1882,0.186,0.1863,0.1868,0.1928,0.1925,0.1929,0.1943,0.1962,0.1963,0.1964,0.1965,0.2033,0.2033,0,0,0,0,0,0,0.1759,0.1759,0.1813,0.1814,0.1802,0.1822,0.1828,0.1844,0.1881,0.1888,0.1867,0.187,0.1922,0.1927,0.1932,0.2005,0.1964,0.1965,0.1966,0.2032,0.2033,0.2034,0,0,0,0,0,0,0.1757,0.1764,0.1812,0.1788,0.1794,0.1822,0.1838,0.1843,0.1866,0.1886,0.1895,0.1888,0.1923,0.193,0.1979,0.2005,0.1966,0.1967,0.2031,0.2032,0.2033,0.2088,0,0,0,0,0,0,0.1755,0.1763,0.1784,0.1789,0.1795,0.1823,0.1837,0.1843,0.1866,0.1871,0.1906,0.1913,0.1925,0.1977,0.1981,0.2006,0.1969,0.203,0.2031,0.2033,0.2085,0.2091,0.2096,0,0,0,0,0,0.1753,0.1755,0.1785,0.1792,0.182,0.1824,0.1826,0.1849,0.1865,0.1875,0.1915,0.1914,0.1989,0.1979,0.1984,0.201,0.2029,0.2031,0.2033,0.2082,0.209,0.2096,0,0,0,0,0,0,0.175,0.1761,0.1793,0.1807,0.183,0.1833,0.1841,0.1857,0.1891,0.1914,0.1929,0.1939,0.1995,0.1988,0.1976,0.2032,0.2006,0.2009,0.2043,0.205,0.2055,0.2072,0.197,0,0,0,0,0,0.1757,0.1769,0.1783,0.1812,0.1812,0.1833,0.1842,0.1867,0.1892,0.1909,0.1931,0.1962,0.1998,0.2015,0.2042,0.2066,0.2085,0.2083,0.2088,0.2093,0.2109,0.2169,0.2182,0.204,0.204,0.204,0,0,0.1747,0.1782,0.1776,0.1813,0.1829,0.1838,0.1842,0.1868,0.1901,0.1912,0.1961,0.1989,0.2012,0.2056,0.2077,0.2057,0.2141,0.2095,0.2099,0.2113,0.2173,0.2187,0.22,0.2041,0.2041,0.2041,0,0,0.1748,0.1783,0.1781,0.1803,0.1849,0.1862,0.1873,0.1891,0.1922,0.1972,0.1996,0.2044,0.2076,0.2105,0.2122,0.2167,0.2177,0.2166,0.2202,0.226,0.2273,0.2285,0.232,0.2335,0.2159,0.2159,0.2159,0,0.1741,0.1776,0.1784,0.181,0.1836,0.1873,0.1887,0.1915,0.196,0.1985,0.2002,0.2086,0.2104,0.2166,0.2188,0.2182,0.2211,0.2177,0.227,0.2282,0.2293,0.2327,0.2342,0.2162,0.2162,0.2161,0.2161,0,0.1751,0.1781,0.1786,0.1836,0.1857,0.1886,0.1921,0.1953,0.1999,0.203,0.2112,0.2156,0.2201,0.2213,0.2221,0.2299,0.2294,0.228,0.2257,0.2311,0.2342,0.2357,0.2166,0.2165,0.2164,0.2163,0,0,0.1701,0.1771,0.1773,0.1805,0.1883,0.189,0.1949,0.1994,0.2034,0.2102,0.2167,0.2235,0.2265,0.2287,0.2307,0.2359,0.2457,0.2357,0.2358,0.24,0.2585,0.2488,0.2494,0.2469,0.2472,0.2474,0.2574,0,0.1708,0.1759,0.1796,0.1837,0.1853,0.1911,0.1955,0.2014,0.2078,0.2146,0.2221,0.2301,0.2292,0.2342,0.2391,0.2476,0.2501,0.2431,0.2521,0.2523,0.2437,0.251,0.2314,0.2379,0.2588,0.2591,0.2593,0,0.17,0.1744,0.1785,0.1848,0.1855,0.1892,0.1973,0.2022,0.2125,0.2183,0.2275,0.2342,0.2465,0.2441,0.259,0.2555,0.2563,0.2602,0.2606,0.251,0.2454,0.236,0.2398,0.2617,0.2615,0.2614,0.2612,0,0.1663,0.1724,0.1768,0.1793,0.1866,0.1899,0.1946,0.2035,0.2094,0.223,0.2309,0.2435,0.2536,0.261,0.268,0.2662,0.2823,0.2798,0.2699,0.2692,0.2539,0.2512,0.285,0.285,0.285,0.2849,0.2849,0,0.1661,0.1683,0.1756,0.1772,0.1813,0.1883,0.1951,0.2002,0.2135,0.2215,0.2335,0.2426,0.2588,0.2687,0.2725,0.2774,0.2852,0.273,0.2723,0.2548,0.2523,0.2734,0.272,0.2853,0.2852,0.2851,0.2851,0,0.1614,0.1671,0.1696,0.1767,0.1795,0.1822,0.1945,0.2,0.2131,0.2256,0.232,0.2476,0.2626,0.2733,0.2864,0.2821,0.2882,0.2835,0.261,0.2574,0.2701,0.2688,0.2797,0.2795,0.2793,0.2791,0.279,0,0.1603,0.1622,0.1665,0.169,0.1729,0.18,0.1857,0.1981,0.2058,0.2261,0.2317,0.25,0.2575,0.2734,0.2751,0.281,0.2839,0.259,0.2505,0.272,0.2702,0.2692,0.2682,0.2329,0.2323,0.2319,0.2316,0,0.1577,0.1591,0.1632,0.1649,0.17,0.175,0.1848,0.1883,0.2043,0.2175,0.2283,0.2364,0.2502,0.2485,0.2551,0.2539,0.2591,0.2504,0.2824,0.2355,0.2281,0.2263,0.2268,0.2279,0.2283,0.2286,0.2288,0.2289,0.1578,0.1569,0.1603,0.1634,0.1692,0.1698,0.1733,0.1801,0.1895,0.2019,0.2124,0.2195,0.224,0.2269,0.2224,0.2216,0.2384,0.2275,0.2287,0.2303,0.2215,0.214,0.2094,0.2096,0.2099,0.2101,0.2102,0,0.1563,0.1561,0.1581,0.1603,0.1635,0.1688,0.1747,0.1732,0.1776,0.1855,0.1928,0.1809,0.1828,0.1915,0.1851,0.1838,0.181,0.1762,0.1723,0.1762,0.1796,0.1679,0.1418,0.1416,0.1413,0.1411,0,0,0.1554,0.1543,0.1534,0.1551,0.1602,0.1601,0.1628,0.1576,0.1593,0.1539,0.1587,0.1717,0.1839,0.1595,0.1572,0.1495,0.1605,0.143,0.1985,0.1977,0.2008,0.2106,0.1972,0,0,0,0,0]},{"header":{"parameterUnit":"m.s-1","parameterCategory":2,"la1":30.2991,"la2":30.254,"lo1":-89.0895,"lo2":-89.0444,"dy":0.0017,"dx":0.0017,"nx":28,"ny":28,"refTime":"2025-02-04T09:00:00:Z","depth":"2","parameterNumber":3,"parameterNumberName":"V-component_of_CURRENTS"},"data":[0,0,0,0,0,0,0,0,0,0,0,0,0,0,0,0,0,0,0,0,0,0,0,0,0,0,0,0,0,0,0,0,0,0,0,0,0,0,0,0,0,0,0,0,0,0,0,0,0,0,0,0,0,0,0,0,0,0,0.0116,0.0116,0,0.0107,0.0106,0.0106,0.0066,0.0065,0.0065,0.0064,-0.0035,-0.0037,-0.0039,0,0,0,0,0,0,0,0,0,0,0,0,0,0.0126,0.0126,0.0116,0.0116,0.0116,0.0107,0.0106,0.0106,0.0067,0.0065,0.0064,0.0063,-0.0035,-0.0037,-0.0039,0,0,0,0,0,0,0,0,0,0,0,0,0,0.0119,0.0126,0.0116,0.0096,0.0094,0.0107,0.0106,0.0106,0.0067,0.0065,0.0064,0.0063,-0.0034,-0.0036,-0.0039,-0.003,0,0,-0.0048,-0.0049,0,0,0,0,0,0,0,0,0.0119,0.0118,0.0099,0.0097,0.0095,0.0087,0.0074,0.0056,0.0067,0.0076,0.0064,0.0062,-0.0001,-0.0007,-0.0005,-0.0035,-0.0039,-0.0048,-0.005,-0.0051,-0.0051,0,0,0,0,0,0,0,0.012,0.0119,0.0112,0.0099,0.0097,0.0096,0.0093,0.0071,0.0043,0.0075,0.0073,0.0073,-0.0003,-0.0002,-0.0008,-0.0041,-0.0048,-0.005,-0.0052,-0.0053,-0.0112,-0.0112,0,0,0,0,0,0,0.0122,0.0119,0.0112,0.0111,0.0105,0.0097,0.0093,0.009,0.0045,0.0038,0.0074,0.0071,0.0003,-0.0005,-0.0012,-0.003,-0.0051,-0.0053,-0.0055,-0.0112,-0.0112,-0.0112,0,0,0,0,0,0,0.0123,0.0122,0.0112,0.0116,0.0115,0.0098,0.0095,0.0091,0.0083,0.0045,0.0036,0.0069,0.0002,-0.0008,-0.0041,-0.0034,-0.0054,-0.0057,-0.0112,-0.0112,-0.0112,-0.0051,0,0,0,0,0,0,0.0123,0.0122,0.0117,0.0116,0.0114,0.0121,0.0096,0.0092,0.0086,0.0081,0.0037,0.0027,-0.0,-0.0037,-0.0044,-0.0038,-0.0059,-0.0113,-0.0112,-0.0112,-0.0053,-0.0049,-0.0045,0,0,0,0,0,0.0123,0.0135,0.0117,0.0116,0.011,0.0121,0.0121,0.0104,0.0087,0.009,0.0053,0.0028,-0.0041,-0.0039,-0.0047,-0.0042,-0.0113,-0.0112,-0.0112,-0.0055,-0.005,-0.0045,0,0,0,0,0,0,0.0139,0.0132,0.0112,0.0119,0.0116,0.0115,0.0117,0.0106,0.0083,0.0069,0.003,0.0018,-0.001,-0.0034,-0.003,-0.006,-0.0081,-0.0082,-0.0034,-0.003,-0.0026,0.0002,-0.0061,0,0,0,0,0,0.014,0.0138,0.0134,0.0134,0.0135,0.0123,0.0123,0.0113,0.0096,0.0085,0.0056,0.0019,-0.0012,-0.0028,-0.0059,-0.007,-0.0084,-0.0074,-0.007,-0.0066,-0.005,-0.0065,-0.006,-0.0112,-0.0112,-0.0112,0,0,0.0149,0.0138,0.014,0.0136,0.0129,0.0145,0.012,0.0123,0.013,0.0076,0.0069,0.0029,-0.0014,-0.0031,-0.0045,-0.0052,-0.006,-0.0066,-0.0062,-0.0048,-0.0064,-0.0058,-0.0054,-0.0112,-0.0112,-0.0112,0,0,0.0176,0.0153,0.0168,0.0168,0.016,0.0155,0.0156,0.0153,0.0142,0.013,0.0091,0.006,0.0017,-0.0003,-0.0023,-0.0014,-0.0043,-0.0031,0.0018,0.0004,0.0008,0.0012,-0.0002,0.0001,-0.0023,-0.0023,-0.0023,0,0.0186,0.0197,0.0175,0.0191,0.0199,0.0163,0.0192,0.018,0.0164,0.0164,0.013,0.0078,0.0035,0.0027,0.0023,-0.0002,-0.0016,0.0005,0.0011,0.0014,0.0017,0.0002,0.0004,-0.002,-0.002,-0.0021,-0.0021,0,0.0227,0.0236,0.0246,0.0248,0.0255,0.0269,0.0257,0.0254,0.0228,0.0217,0.0195,0.0139,0.0113,0.0089,0.0055,0.0059,0.004,0.0015,0.0005,0.0027,0.0009,0.001,-0.0016,-0.0017,-0.0018,-0.0018,0,0,0.0264,0.0275,0.0279,0.0297,0.0287,0.0307,0.0311,0.0321,0.0338,0.0291,0.0315,0.0243,0.0211,0.0187,0.0142,0.0126,0.0122,0.0084,0.0082,0.0082,0.0092,0.0056,0.0053,0.0098,0.0098,0.0099,0.0071,0,0.0305,0.0351,0.0344,0.0394,0.0423,0.0399,0.0413,0.041,0.0393,0.0403,0.034,0.0334,0.0248,0.0243,0.0207,0.0157,0.0127,0.0132,0.0062,0.006,0.0034,0.0054,0.0053,0.0026,0.0071,0.0072,0.0072,0,0.0351,0.0379,0.0434,0.0477,0.049,0.0509,0.0539,0.0549,0.0538,0.0528,0.0499,0.0454,0.0424,0.0345,0.026,0.0268,0.0182,0.0129,0.0126,0.0076,0.0025,0.0009,0.0025,0.0072,0.0072,0.0072,0.0072,0,0.0396,0.0448,0.0493,0.0505,0.0541,0.0566,0.0583,0.0586,0.0615,0.0617,0.0646,0.0577,0.0566,0.0458,0.0323,0.0301,0.023,0.0186,0.0066,0.0062,0.004,0.0033,0.0112,0.0112,0.0112,0.0112,0.0112,0,0.044,0.0483,0.052,0.0549,0.0617,0.0623,0.0687,0.0695,0.0722,0.0785,0.0716,0.0748,0.0594,0.0525,0.038,0.0234,0.0266,0.0086,0.0057,0.0059,0.0055,0.0077,0.0073,0.0111,0.0111,0.0112,0.0112,0,0.0471,0.0488,0.0558,0.0616,0.0638,0.0686,0.0759,0.0815,0.083,0.0917,0.0931,0.0889,0.0808,0.064,0.0479,0.0323,0.0182,0.0107,0.0119,0.0091,0.0009,0.0008,-0.0006,-0.0007,-0.0008,-0.0009,-0.001,0,0.0484,0.0518,0.0607,0.0655,0.0681,0.0753,0.0813,0.0857,0.0932,0.1009,0.1069,0.1017,0.0975,0.0721,0.0458,0.0211,0.0174,0.004,-0.0015,0.0026,-0.0001,0.0001,0.0002,-0.0021,-0.0022,-0.0022,-0.0023,0,0.0519,0.0545,0.0602,0.0703,0.0781,0.088,0.0976,0.1057,0.1135,0.12,0.1274,0.1244,0.1004,0.0744,0.0398,0.0223,0.0083,0.0016,0.0072,0.0005,0.0008,-0.0017,-0.0015,-0.0029,-0.0029,-0.0028,-0.0028,-0.0027,0.0539,0.0589,0.0666,0.076,0.0853,0.1,0.1096,0.1208,0.1327,0.1425,0.1396,0.1331,0.1049,0.0583,0.0318,0.0036,0.0033,-0.0084,-0.008,-0.0076,-0.0077,-0.0077,-0.013,-0.013,-0.013,-0.013,-0.013,0,0.0575,0.0637,0.0724,0.0861,0.098,0.1013,0.1198,0.1303,0.1448,0.148,0.1487,0.1196,0.0905,0.0607,0.0177,-0.0084,-0.0099,-0.0155,-0.0118,-0.0112,-0.0106,-0.0107,-0.0169,-0.0169,-0.0169,-0.017,0,0,0.0601,0.0692,0.0744,0.0939,0.1031,0.1208,0.1312,0.144,0.15,0.1502,0.1422,0.1311,0.0954,0.0643,0.0301,0.0073,0.0042,0.0024,0.0073,0.016,0.017,-0.0059,-0.0053,0,0,0,0,0]}],[{"header":{"parameterUnit":"m.s-1","parameterCategory":2,"la1":30.2991,"la2":30.254,"lo1":-89.0895,"lo2":-89.0444,"dy":0.0017,"dx":0.0017,"nx":28,"ny":28,"refTime":"2025-02-04T09:00:00:Z","depth":"4","parameterNumber":2,"parameterNumberName":"U-component_of_CURRENTS"},"data":[0,0,0,0,0,0,0,0,0,0,0,0,0,0,0,0,0,0,0,0,0,0,0,0,0,0,0,0,0,0,0,0,0,0,0,0,0,0,0,0,0,0,0,0,0,0,0,0,0,0,0,0,0,0,0,0,0,0,0.0804,0.0804,0,0.0817,0.0817,0.0817,0.0798,0.0797,0.0797,0.0797,0.0816,0.0816,0.0817,0,0,0,0,0,0,0,0,0,0,0,0,0,0.0756,0.0757,0.0804,0.0804,0.0805,0.0817,0.0817,0.0817,0.0798,0.0797,0.0797,0.0797,0.0816,0.0816,0.0817,0,0,0,0,0,0,0,0,0,0,0,0,0,0.0769,0.0757,0.0804,0.0801,0.0802,0.0817,0.0817,0.0817,0.0798,0.0797,0.0797,0.0797,0.0815,0.0816,0.0817,0.0828,0,0,0.082,0.0821,0,0,0,0,0,0,0,0,0.0768,0.077,0.0801,0.0802,0.0802,0.0811,0.0808,0.0823,0.0798,0.0793,0.0797,0.0797,0.0819,0.0819,0.0814,0.0829,0.083,0.082,0.0821,0.0821,0.0822,0,0,0,0,0,0,0,0.0767,0.0769,0.0803,0.0802,0.0803,0.0798,0.0799,0.081,0.0803,0.0794,0.0794,0.0804,0.0818,0.0813,0.0814,0.083,0.082,0.0821,0.0822,0.0822,0.0906,0.0907,0,0,0,0,0,0,0.0778,0.0768,0.0803,0.0804,0.0791,0.08,0.0801,0.0803,0.0802,0.0804,0.0805,0.0804,0.0812,0.0813,0.0815,0.0875,0.0821,0.0822,0.0823,0.0904,0.0906,0.0908,0,0,0,0,0,0,0.0776,0.078,0.0802,0.0792,0.0795,0.0802,0.0804,0.0804,0.0819,0.0812,0.0812,0.0823,0.0811,0.0814,0.0843,0.0874,0.0823,0.0824,0.0902,0.0905,0.0907,0.0965,0,0,0,0,0,0,0.0775,0.0779,0.0788,0.0792,0.0796,0.0823,0.0805,0.0805,0.0828,0.0827,0.0828,0.0828,0.0811,0.0842,0.0844,0.0875,0.0824,0.09,0.0903,0.0906,0.0961,0.097,0.0977,0,0,0,0,0,0.0773,0.0776,0.0788,0.0792,0.0806,0.0825,0.0826,0.0826,0.0829,0.0838,0.0844,0.0829,0.0863,0.0844,0.0846,0.0878,0.0898,0.0902,0.0906,0.0958,0.0968,0.0976,0,0,0,0,0,0,0.0758,0.0776,0.0788,0.0797,0.0821,0.0824,0.0837,0.0843,0.0854,0.086,0.0849,0.085,0.0884,0.0879,0.0858,0.0912,0.0879,0.0884,0.0918,0.0928,0.0935,0.0933,0.0825,0,0,0,0,0,0.0763,0.077,0.0795,0.0806,0.0824,0.0839,0.085,0.0856,0.0867,0.0872,0.0882,0.0891,0.0898,0.0912,0.0915,0.095,0.0953,0.0973,0.0981,0.0987,0.0989,0.1007,0.1016,0.092,0.092,0.092,0,0,0.0763,0.0773,0.078,0.0805,0.0823,0.0848,0.0844,0.0871,0.0891,0.0874,0.0913,0.0918,0.0913,0.0943,0.096,0.0946,0.1025,0.0992,0.0997,0.0995,0.1012,0.1021,0.1029,0.0922,0.0922,0.0922,0,0,0.0763,0.0781,0.0791,0.0815,0.0853,0.0865,0.0883,0.0913,0.0928,0.0966,0.0957,0.0983,0.1007,0.1006,0.1006,0.1063,0.106,0.1075,0.1117,0.1136,0.1144,0.115,0.1201,0.1211,0.1084,0.1084,0.1084,0,0.0765,0.0777,0.0799,0.0821,0.0842,0.088,0.0903,0.0927,0.0964,0.0985,0.0988,0.1031,0.1031,0.1058,0.1078,0.1079,0.1101,0.1081,0.1145,0.1151,0.1157,0.1206,0.1217,0.1088,0.1087,0.1087,0.1087,0,0.0772,0.0792,0.0805,0.0843,0.087,0.0897,0.0942,0.0981,0.1014,0.1037,0.1088,0.1095,0.112,0.1131,0.1122,0.1171,0.118,0.1147,0.1118,0.117,0.122,0.123,0.1092,0.1091,0.109,0.1089,0,0,0.0749,0.0798,0.0805,0.083,0.0883,0.0908,0.0959,0.1009,0.1052,0.1098,0.1143,0.117,0.1192,0.1195,0.1199,0.1221,0.1294,0.1214,0.1213,0.1259,0.1371,0.1269,0.1271,0.1275,0.1277,0.1278,0.1401,0,0.0751,0.0782,0.0808,0.0856,0.0882,0.0933,0.098,0.1035,0.1084,0.1144,0.1172,0.1218,0.1212,0.1239,0.1262,0.1275,0.1319,0.1265,0.1317,0.132,0.1217,0.1277,0.1282,0.1409,0.1411,0.1412,0.1414,0,0.0749,0.0769,0.0805,0.0867,0.0888,0.0924,0.1007,0.1059,0.1145,0.1186,0.124,0.1268,0.1322,0.1303,0.1372,0.1343,0.1372,0.1383,0.1387,0.1271,0.1235,0.1338,0.1432,0.143,0.1429,0.1428,0.1427,0,0.0718,0.0771,0.0796,0.0817,0.0894,0.0928,0.0983,0.1072,0.1127,0.1223,0.1271,0.133,0.1378,0.1405,0.1443,0.1419,0.1512,0.1473,0.142,0.1415,0.1443,0.1434,0.1531,0.1531,0.1531,0.153,0.153,0,0.07,0.0727,0.0787,0.0805,0.0855,0.0922,0.0995,0.1062,0.116,0.1227,0.13,0.1351,0.1406,0.1462,0.1476,0.1485,0.1547,0.1441,0.1433,0.1471,0.1464,0.1453,0.1442,0.1535,0.1534,0.1533,0.1532,0,0.0663,0.0703,0.0738,0.0811,0.0842,0.0885,0.0997,0.1047,0.1159,0.1247,0.1282,0.1392,0.1459,0.1512,0.1571,0.1527,0.1539,0.1533,0.1613,0.1606,0.143,0.1421,0.1479,0.1476,0.1474,0.1472,0.1471,0,0.0641,0.0653,0.0731,0.0753,0.0787,0.0862,0.0911,0.1032,0.1086,0.1255,0.1283,0.1401,0.1458,0.1484,0.1527,0.1561,0.1537,0.1548,0.1446,0.1434,0.1422,0.1417,0.1412,0.1467,0.1466,0.1466,0.1465,0,0.0591,0.0626,0.0656,0.0701,0.0747,0.0802,0.0883,0.092,0.1066,0.1171,0.1263,0.1313,0.1394,0.1429,0.1478,0.1487,0.1527,0.1523,0.1527,0.1432,0.142,0.1409,0.1407,0.1457,0.1458,0.1459,0.146,0,0.055,0.0558,0.06,0.0635,0.0688,0.0722,0.0782,0.0856,0.0936,0.1124,0.1149,0.1278,0.1384,0.1395,0.1429,0.1435,0.14,0.1341,0.1354,0.1363,0.1259,0.1224,0.1206,0,0,0,0,0,0.0496,0.0499,0.0527,0.0559,0.0608,0.0642,0.0749,0.0815,0.0955,0.0991,0.1075,0.1147,0.1215,0.1276,0.1257,0.1352,0.1389,0.1322,0.1322,0.1413,0.1422,0.1305,0,0,0,0,0,0,0.0461,0.0481,0.0498,0.0486,0.0492,0.0541,0.0607,0.0706,0.0743,0.0894,0.0941,0.1053,0.1134,0.1205,0.1223,0.124,0.1213,0.1401,0.1397,0.1408,0.1416,0.1423,0.1307,0,0,0,0,0]},{"header":{"parameterUnit":"m.s-1","parameterCategory":2,"la1":30.2991,"la2":30.254,"lo1":-89.0895,"lo2":-89.0444,"dy":0.0017,"dx":0.0017,"nx":28,"ny":28,"refTime":"2025-02-04T09:00:00:Z","depth":"4","parameterNumber":3,"parameterNumberName":"V-component_of_CURRENTS"},"data":[0,0,0,0,0,0,0,0,0,0,0,0,0,0,0,0,0,0,0,0,0,0,0,0,0,0,0,0,0,0,0,0,0,0,0,0,0,0,0,0,0,0,0,0,0,0,0,0,0,0,0,0,0,0,0,0,0,0,0.0207,0.0207,0,0.0212,0.0212,0.0212,0.0226,0.0226,0.0226,0.0227,0.0192,0.0191,0.019,0,0,0,0,0,0,0,0,0,0,0,0,0,0.0194,0.0194,0.0207,0.0207,0.0207,0.0212,0.0212,0.0212,0.0226,0.0226,0.0226,0.0227,0.0193,0.0192,0.019,0,0,0,0,0,0,0,0,0,0,0,0,0,0.02,0.0194,0.0207,0.0213,0.0214,0.0212,0.0212,0.0212,0.0226,0.0226,0.0226,0.0227,0.0193,0.0192,0.019,0.0175,0,0,0.0185,0.0184,0,0,0,0,0,0,0,0,0.02,0.0201,0.0212,0.0213,0.0213,0.0218,0.0195,0.0197,0.0226,0.0223,0.0227,0.0227,0.0196,0.0194,0.0197,0.0173,0.0172,0.0185,0.0184,0.0183,0.0183,0,0,0,0,0,0,0,0.0199,0.0201,0.021,0.0212,0.0213,0.0211,0.0212,0.0196,0.0208,0.0223,0.0224,0.0222,0.0196,0.0199,0.0196,0.0171,0.0185,0.0184,0.0183,0.0182,0.0126,0.0125,0,0,0,0,0,0,0.0197,0.02,0.021,0.021,0.0206,0.0211,0.0212,0.0217,0.0209,0.0208,0.0222,0.0223,0.0201,0.0198,0.0195,0.0185,0.0183,0.0182,0.0181,0.0126,0.0126,0.0125,0,0,0,0,0,0,0.0197,0.0198,0.021,0.0204,0.0205,0.021,0.0216,0.0217,0.0225,0.0209,0.0207,0.0229,0.0201,0.0197,0.0185,0.0184,0.0181,0.018,0.0127,0.0126,0.0125,0.016,0,0,0,0,0,0,0.0196,0.0198,0.0204,0.0204,0.0205,0.0214,0.0215,0.0217,0.0222,0.0224,0.0214,0.0211,0.0201,0.0188,0.0184,0.0181,0.0178,0.0128,0.0127,0.0126,0.0159,0.016,0.0161,0,0,0,0,0,0.0196,0.0208,0.0205,0.0206,0.0213,0.0214,0.0215,0.022,0.0223,0.0228,0.022,0.0211,0.0178,0.0186,0.0182,0.0179,0.0128,0.0127,0.0126,0.0159,0.016,0.0161,0,0,0,0,0,0,0.0209,0.021,0.0207,0.0219,0.0217,0.0216,0.0223,0.0223,0.0222,0.0224,0.0209,0.0206,0.0192,0.0177,0.0187,0.0157,0.0149,0.0147,0.0176,0.0177,0.0178,0.0189,0.0177,0,0,0,0,0,0.0212,0.0222,0.0216,0.0227,0.0224,0.0223,0.0225,0.0227,0.0224,0.0225,0.0216,0.02,0.0182,0.0175,0.0158,0.0145,0.0119,0.0136,0.0137,0.0138,0.0143,0.0097,0.0095,0.0121,0.0121,0.0121,0,0,0.0219,0.0223,0.0227,0.023,0.0229,0.0234,0.0226,0.0232,0.0239,0.0219,0.0225,0.0204,0.0178,0.0166,0.0158,0.0155,0.0117,0.0137,0.0138,0.0142,0.0096,0.0093,0.0091,0.0121,0.0121,0.0121,0,0,0.0239,0.0239,0.0252,0.0251,0.0251,0.0248,0.0249,0.0247,0.0248,0.0245,0.023,0.0209,0.0189,0.0171,0.0158,0.015,0.0122,0.014,0.0157,0.0114,0.0111,0.0109,0.0074,0.0068,0.0142,0.0142,0.0142,0,0.0246,0.0264,0.0255,0.0266,0.0271,0.0255,0.0267,0.0263,0.0259,0.0257,0.0251,0.0212,0.0191,0.0169,0.0168,0.0153,0.0126,0.016,0.0116,0.0113,0.011,0.0075,0.0068,0.0144,0.0144,0.0144,0.0143,0,0.0273,0.0287,0.0294,0.0303,0.0304,0.0313,0.0302,0.0302,0.0295,0.0287,0.0266,0.0234,0.0212,0.0195,0.0182,0.015,0.0136,0.0123,0.0118,0.011,0.0072,0.0065,0.0146,0.0145,0.0145,0.0145,0,0,0.0287,0.0309,0.0311,0.0325,0.0326,0.0332,0.0335,0.0332,0.0337,0.0313,0.0309,0.0269,0.0248,0.0231,0.0202,0.0163,0.0118,0.0139,0.0136,0.0113,0.0024,0.0022,0.0014,0.0096,0.0095,0.0094,0.0007,0,0.031,0.0344,0.0347,0.0375,0.0389,0.0378,0.0387,0.038,0.0366,0.0355,0.0307,0.0292,0.0262,0.0251,0.0206,0.0138,0.0099,0.0143,0.0028,0.0025,0.0031,0.0005,0.009,0.0002,-0.0,-0.0002,-0.0003,0,0.0331,0.0356,0.039,0.0418,0.0422,0.0437,0.0445,0.0452,0.0425,0.0412,0.0379,0.034,0.0284,0.0258,0.0141,0.017,0.0104,0.0048,0.0043,0.0026,0.0009,0.0009,-0.0017,-0.0016,-0.0014,-0.0014,-0.0013,0,0.0346,0.0382,0.0416,0.0425,0.0451,0.0467,0.0481,0.0472,0.0485,0.045,0.0444,0.0368,0.0334,0.0235,0.0125,0.0129,-0.0011,-0.0021,-0.0085,-0.0085,-0.0071,-0.0068,-0.0104,-0.0104,-0.0104,-0.0103,-0.0103,0,0.0366,0.0392,0.043,0.0449,0.0495,0.05,0.054,0.0537,0.0536,0.0547,0.0482,0.0458,0.0325,0.0231,0.0128,-0.0003,-0.0011,-0.0087,-0.0111,-0.0055,-0.0049,-0.0076,-0.0072,-0.0107,-0.0106,-0.0105,-0.0105,0,0.0373,0.0395,0.0441,0.0485,0.0505,0.054,0.0596,0.062,0.0611,0.0619,0.0611,0.0519,0.0393,0.0256,0.0088,0.001,-0.0119,-0.0161,-0.0087,-0.0105,-0.0164,-0.0157,-0.0243,-0.0244,-0.0245,-0.0245,-0.0246,0,0.0378,0.0403,0.0473,0.0509,0.0535,0.0593,0.0637,0.0659,0.0682,0.0653,0.0651,0.054,0.0462,0.0227,0.0077,-0.0125,-0.0148,-0.0209,-0.0191,-0.0165,-0.0181,-0.0172,-0.0164,-0.0247,-0.0247,-0.0247,-0.0247,0,0.0391,0.042,0.0461,0.0539,0.0597,0.0664,0.0721,0.0742,0.0758,0.0747,0.0682,0.0558,0.0413,0.0227,0.007,-0.0073,-0.0169,-0.0217,-0.0216,-0.02,-0.0171,-0.0183,-0.0175,-0.025,-0.025,-0.0249,-0.0249,0,0.0406,0.0438,0.0498,0.0566,0.0639,0.0708,0.0742,0.0766,0.0788,0.0751,0.0723,0.0567,0.0473,0.0252,0.0105,-0.0037,-0.0069,-0.0105,-0.011,-0.0109,-0.0045,0.0013,-0.0036,0,0,0,0,0,0.0416,0.0456,0.0519,0.0597,0.067,0.0719,0.0784,0.0809,0.0818,0.0782,0.0757,0.0621,0.0394,0.0287,0.0146,0.0087,-0.0096,-0.0083,-0.0139,-0.0264,-0.0261,-0.0209,0,0,0,0,0,0,0.0424,0.0484,0.0518,0.061,0.0666,0.0755,0.0802,0.0814,0.0791,0.077,0.0648,0.0588,0.0363,0.0473,0.0142,0.0097,0.0044,-0.0192,-0.0195,-0.0266,-0.0263,-0.0261,-0.0206,0,0,0,0,0]}]]